Time,TemperatureF,DewpointF,PressureIn,WindDirection,WindDirectionDegrees,WindSpeedMPH,WindSpeedGustMPH,Humidity,HourlyPrecipIn,Conditions,Clouds,dailyrainin,SoftwareType,DateUTC
2013-01-13 00:03:00,20.5,8.4,30.02,North,1,0.0,0.0,59,0.00,CLR,OVC,0.00,WeatherDisplay:10.37,2013-01-13 06:03:00,
2013-01-13 00:08:00,20.5,8.8,30.02,North,1,0.0,0.0,60,0.00,CLR,OVC,0.00,WeatherDisplay:10.37,2013-01-13 06:08:00,
2013-01-13 00:13:00,20.5,8.8,30.02,North,1,0.0,0.0,60,0.00,CLR,OVC,0.00,WeatherDisplay:10.37,2013-01-13 06:13:00,
2013-01-13 00:18:00,20.1,8.4,30.02,North,1,0.0,0.0,60,0.00,CLR,OVC,0.00,WeatherDisplay:10.37,2013-01-13 06:18:00,
2013-01-13 00:23:00,19.9,8.3,30.02,North,1,0.0,0.0,60,0.00,CLR,OVC,0.00,WeatherDisplay:10.37,2013-01-13 06:23:00,
2013-01-13 00:28:00,19.8,8.1,30.02,North,1,0.0,0.0,60,0.00,CLR,OVC,0.00,WeatherDisplay:10.37,2013-01-13 06:28:00,
2013-01-13 00:33:00,19.6,7.9,30.01,North,1,0.0,0.0,60,0.00,CLR,OVC,0.00,WeatherDisplay:10.37,2013-01-13 06:33:00,
2013-01-13 00:38:00,19.4,7.8,30.01,North,1,0.0,0.0,60,0.00,CLR,OVC,0.00,WeatherDisplay:10.37,2013-01-13 06:38:00,
2013-01-13 00:43:00,19.2,7.6,30.03,North,1,0.0,0.0,60,0.00,CLR,OVC,0.00,WeatherDisplay:10.37,2013-01-13 06:43:00,
2013-01-13 00:48:00,19.0,7.4,30.04,North,1,0.0,0.0,60,0.00,CLR,OVC,0.00,WeatherDisplay:10.37,2013-01-13 06:48:00,
2013-01-13 00:53:00,18.9,7.3,30.04,North,1,0.0,0.0,60,0.00,CLR,OVC,0.00,WeatherDisplay:10.37,2013-01-13 06:53:00,
2013-01-13 00:58:00,18.7,7.4,30.04,North,1,0.0,0.0,61,0.00,CLR,OVC,0.00,WeatherDisplay:10.37,2013-01-13 06:58:00,
2013-01-13 01:03:00,18.7,7.4,30.04,North,1,0.0,0.0,61,0.00,CLR,OVC,0.00,WeatherDisplay:10.37,2013-01-13 07:03:00,
2013-01-13 01:08:00,18.7,7.4,30.05,North,1,0.0,0.0,61,0.00,CLR,OVC,0.00,WeatherDisplay:10.37,2013-01-13 07:08:00,
2013-01-13 01:13:00,18.3,7.1,30.05,North,1,0.0,0.0,61,0.00,CLR,OVC,0.00,WeatherDisplay:10.37,2013-01-13 07:13:00,
2013-01-13 01:18:00,18.3,7.1,30.04,North,1,0.0,0.0,61,0.00,CLR,OVC,0.00,WeatherDisplay:10.37,2013-01-13 07:18:00,
2013-01-13 01:23:00,18.3,7.1,30.06,North,1,0.0,0.0,61,0.00,CLR,OVC,0.00,WeatherDisplay:10.37,2013-01-13 07:23:00,
2013-01-13 01:28:00,18.3,7.5,30.06,North,1,0.0,0.0,62,0.00,CLR,OVC,0.00,WeatherDisplay:10.37,2013-01-13 07:28:00,
2013-01-13 01:33:00,18.3,7.5,30.06,North,1,0.0,0.0,62,0.00,CLR,OVC,0.00,WeatherDisplay:10.37,2013-01-13 07:33:00,
2013-01-13 01:38:00,18.1,7.3,30.06,North,1,0.0,0.0,62,0.00,CLR,OVC,0.00,WeatherDisplay:10.37,2013-01-13 07:38:00,
2013-01-13 01:43:00,18.3,7.5,30.06,North,1,0.0,0.0,62,0.00,CLR,OVC,0.00,WeatherDisplay:10.37,2013-01-13 07:43:00,
2013-01-13 01:48:00,18.1,7.3,30.06,North,1,0.0,0.0,62,0.00,CLR,OVC,0.00,WeatherDisplay:10.37,2013-01-13 07:48:00,
2013-01-13 01:53:00,18.1,7.3,30.06,North,1,0.0,0.0,62,0.00,CLR,OVC,0.00,WeatherDisplay:10.37,2013-01-13 07:53:00,
2013-01-13 01:58:00,18.0,7.1,30.06,North,1,0.0,0.0,62,0.00,CLR,OVC,0.00,WeatherDisplay:10.37,2013-01-13 07:58:00,
2013-01-13 02:03:00,18.0,7.1,30.06,North,1,0.0,0.0,62,0.00,CLR,OVC,0.00,WeatherDisplay:10.37,2013-01-13 08:03:00,
2013-01-13 02:08:00,18.0,7.1,30.07,North,1,0.0,0.0,62,0.00,CLR,OVC,0.00,WeatherDisplay:10.37,2013-01-13 08:08:00,
2013-01-13 02:13:00,17.8,7.0,30.07,North,1,0.0,0.0,62,0.00,CLR,OVC,0.00,WeatherDisplay:10.37,2013-01-13 08:13:00,
2013-01-13 02:18:00,17.6,6.8,30.07,North,1,0.0,0.0,62,0.00,CLR,OVC,0.00,WeatherDisplay:10.37,2013-01-13 08:18:00,
2013-01-13 02:23:00,17.4,6.3,30.06,North,1,0.0,0.0,61,0.00,CLR,OVC,0.00,WeatherDisplay:10.37,2013-01-13 08:23:00,
2013-01-13 02:28:00,17.1,5.9,30.06,North,1,0.0,0.0,61,0.00,CLR,OVC,0.00,WeatherDisplay:10.37,2013-01-13 08:28:00,
2013-01-13 02:33:00,16.9,5.7,30.08,North,1,0.0,0.0,61,0.00,CLR,OVC,0.00,WeatherDisplay:10.37,2013-01-13 08:33:00,
2013-01-13 02:38:00,16.9,5.7,30.06,North,1,0.0,0.0,61,0.00,CLR,OVC,0.00,WeatherDisplay:10.37,2013-01-13 08:38:00,
2013-01-13 02:43:00,16.9,5.7,30.08,North,1,0.0,0.0,61,0.00,CLR,OVC,0.00,WeatherDisplay:10.37,2013-01-13 08:43:00,
2013-01-13 02:48:00,16.5,5.8,30.09,North,1,0.0,0.0,62,0.00,CLR,OVC,0.00,WeatherDisplay:10.37,2013-01-13 08:48:00,
2013-01-13 02:53:00,16.5,5.8,30.08,North,1,0.0,0.0,62,0.00,CLR,OVC,0.00,WeatherDisplay:10.37,2013-01-13 08:53:00,
2013-01-13 02:58:00,16.5,5.8,30.08,North,1,0.0,0.0,62,0.00,CLR,OVC,0.00,WeatherDisplay:10.37,2013-01-13 08:58:00,
2013-01-13 03:03:00,16.3,5.6,30.08,North,1,0.0,0.0,62,0.00,CLR,OVC,0.00,WeatherDisplay:10.37,2013-01-13 09:03:00,
2013-01-13 03:08:00,16.3,5.6,30.08,North,1,0.0,0.0,62,0.00,CLR,OVC,0.00,WeatherDisplay:10.37,2013-01-13 09:08:00,
2013-01-13 03:13:00,16.3,5.6,30.08,North,1,0.0,0.0,62,0.00,CLR,OVC,0.00,WeatherDisplay:10.37,2013-01-13 09:13:00,
2013-01-13 03:18:00,16.0,5.6,30.09,North,1,0.0,0.0,63,0.00,CLR,OVC,0.00,WeatherDisplay:10.37,2013-01-13 09:18:00,
2013-01-13 03:23:00,16.0,5.6,30.09,North,1,0.0,0.0,63,0.00,CLR,OVC,0.00,WeatherDisplay:10.37,2013-01-13 09:23:00,
2013-01-13 03:28:00,15.8,5.4,30.08,North,1,0.0,0.0,63,0.00,CLR,OVC,0.00,WeatherDisplay:10.37,2013-01-13 09:28:00,
2013-01-13 03:33:00,15.8,5.4,30.08,North,1,0.0,0.0,63,0.00,CLR,OVC,0.00,WeatherDisplay:10.37,2013-01-13 09:33:00,
2013-01-13 03:38:00,15.4,5.1,30.08,North,1,0.0,0.0,63,0.00,CLR,OVC,0.00,WeatherDisplay:10.37,2013-01-13 09:38:00,
2013-01-13 03:43:00,15.4,5.1,30.07,North,1,0.0,0.0,63,0.00,CLR,OVC,0.00,WeatherDisplay:10.37,2013-01-13 09:43:00,
2013-01-13 03:48:00,15.4,5.1,30.09,North,1,0.0,0.0,63,0.00,CLR,OVC,0.00,WeatherDisplay:10.37,2013-01-13 09:48:00,
2013-01-13 03:53:00,15.4,5.1,30.09,North,1,0.0,0.0,63,0.00,CLR,OVC,0.00,WeatherDisplay:10.37,2013-01-13 09:53:00,
2013-01-13 03:58:00,15.4,5.1,30.09,North,1,0.0,0.0,63,0.00,CLR,OVC,0.00,WeatherDisplay:10.37,2013-01-13 09:58:00,
2013-01-13 04:03:00,15.4,5.1,30.09,North,1,0.0,0.0,63,0.00,CLR,OVC,0.00,WeatherDisplay:10.37,2013-01-13 10:03:00,
2013-01-13 04:08:00,15.3,4.9,30.09,North,1,0.0,0.0,63,0.00,CLR,OVC,0.00,WeatherDisplay:10.37,2013-01-13 10:08:00,
2013-01-13 04:13:00,15.1,5.1,30.08,North,1,0.0,0.0,64,0.00,CLR,OVC,0.00,WeatherDisplay:10.37,2013-01-13 10:13:00,
2013-01-13 04:18:00,14.9,4.9,30.08,North,1,0.0,0.0,64,0.00,CLR,OVC,0.00,WeatherDisplay:10.37,2013-01-13 10:18:00,
2013-01-13 04:23:00,14.7,4.7,30.08,North,1,0.0,0.0,64,0.00,CLR,OVC,0.00,WeatherDisplay:10.37,2013-01-13 10:23:00,
2013-01-13 04:28:00,14.7,4.7,30.08,North,1,0.0,0.0,64,0.00,CLR,OVC,0.00,WeatherDisplay:10.37,2013-01-13 10:28:00,
2013-01-13 04:33:00,14.7,4.7,30.09,North,1,0.0,0.0,64,0.00,CLR,OVC,0.00,WeatherDisplay:10.37,2013-01-13 10:33:00,
2013-01-13 04:38:00,14.7,4.7,30.09,North,1,0.0,0.0,64,0.00,CLR,OVC,0.00,WeatherDisplay:10.37,2013-01-13 10:38:00,
2013-01-13 04:43:00,14.7,4.7,30.09,North,1,0.0,0.0,64,0.00,CLR,OVC,0.00,WeatherDisplay:10.37,2013-01-13 10:43:00,
2013-01-13 04:48:00,14.7,4.7,30.09,North,1,0.0,0.0,64,0.00,CLR,OVC,0.00,WeatherDisplay:10.37,2013-01-13 10:48:00,
2013-01-13 04:53:00,14.4,4.4,30.09,North,1,0.0,0.0,64,0.00,CLR,OVC,0.00,WeatherDisplay:10.37,2013-01-13 10:53:00,
2013-01-13 04:58:00,14.4,4.4,30.09,North,1,0.0,0.0,64,0.00,CLR,OVC,0.00,WeatherDisplay:10.37,2013-01-13 10:58:00,
2013-01-13 05:03:00,14.2,4.2,30.09,North,1,0.0,0.0,64,0.00,CLR,OVC,0.00,WeatherDisplay:10.37,2013-01-13 11:03:00,
2013-01-13 05:08:00,14.2,4.2,30.09,North,1,0.0,0.0,64,0.00,CLR,OVC,0.00,WeatherDisplay:10.37,2013-01-13 11:08:00,
2013-01-13 05:13:00,14.2,4.2,30.10,North,1,0.0,0.0,64,0.00,CLR,OVC,0.00,WeatherDisplay:10.37,2013-01-13 11:13:00,
2013-01-13 05:18:00,14.2,4.2,30.11,North,1,0.0,0.0,64,0.00,CLR,OVC,0.00,WeatherDisplay:10.37,2013-01-13 11:18:00,
2013-01-13 05:23:00,14.4,4.4,30.11,North,1,0.0,0.0,64,0.00,CLR,OVC,0.00,WeatherDisplay:10.37,2013-01-13 11:23:00,
2013-01-13 05:28:00,14.2,4.2,30.11,North,1,0.0,0.0,64,0.00,CLR,OVC,0.00,WeatherDisplay:10.37,2013-01-13 11:28:00,
2013-01-13 05:33:00,14.0,4.4,30.11,North,1,0.0,0.0,65,0.00,CLR,OVC,0.00,WeatherDisplay:10.37,2013-01-13 11:33:00,
2013-01-13 05:38:00,14.0,4.4,30.12,North,1,0.0,0.0,65,0.00,CLR,OVC,0.00,WeatherDisplay:10.37,2013-01-13 11:38:00,
2013-01-13 05:43:00,13.8,4.2,30.12,North,1,0.0,0.0,65,0.00,CLR,OVC,0.00,WeatherDisplay:10.37,2013-01-13 11:43:00,
2013-01-13 05:48:00,13.8,4.2,30.12,North,1,0.0,0.0,65,0.00,CLR,OVC,0.00,WeatherDisplay:10.37,2013-01-13 11:48:00,
2013-01-13 05:53:00,13.5,3.9,30.12,North,1,0.0,0.0,65,0.00,CLR,OVC,0.00,WeatherDisplay:10.37,2013-01-13 11:53:00,
2013-01-13 05:58:00,13.3,3.7,30.13,North,1,0.0,0.0,65,0.00,CLR,OVC,0.00,WeatherDisplay:10.37,2013-01-13 11:58:00,
2013-01-13 06:03:00,13.3,3.7,30.13,North,1,0.0,0.0,65,0.00,CLR,OVC,0.00,WeatherDisplay:10.37,2013-01-13 12:03:00,
2013-01-13 06:08:00,13.3,3.7,30.14,North,1,0.0,0.0,65,0.00,CLR,OVC,0.00,WeatherDisplay:10.37,2013-01-13 12:08:00,
2013-01-13 06:13:00,13.3,3.4,30.14,North,1,0.0,0.0,64,0.00,CLR,OVC,0.00,WeatherDisplay:10.37,2013-01-13 12:13:00,
2013-01-13 06:18:00,12.9,3.0,30.14,North,1,0.0,0.0,64,0.00,CLR,OVC,0.00,WeatherDisplay:10.37,2013-01-13 12:18:00,
2013-01-13 06:23:00,12.9,3.0,30.14,North,1,0.0,0.0,64,0.00,CLR,OVC,0.00,WeatherDisplay:10.37,2013-01-13 12:23:00,
2013-01-13 06:28:00,12.7,2.8,30.14,North,1,0.0,0.0,64,0.00,CLR,OVC,0.00,WeatherDisplay:10.37,2013-01-13 12:28:00,
2013-01-13 06:33:00,12.7,2.5,30.15,North,1,0.0,0.0,63,0.00,CLR,OVC,0.00,WeatherDisplay:10.37,2013-01-13 12:33:00,
2013-01-13 06:38:00,12.4,2.2,30.15,North,1,0.0,0.0,63,0.00,CLR,OVC,0.00,WeatherDisplay:10.37,2013-01-13 12:38:00,
2013-01-13 06:43:00,12.4,2.2,30.16,North,1,0.0,0.0,63,0.00,CLR,OVC,0.00,WeatherDisplay:10.37,2013-01-13 12:43:00,
2013-01-13 06:48:00,12.4,2.2,30.16,North,1,0.0,0.0,63,0.00,CLR,OVC,0.00,WeatherDisplay:10.37,2013-01-13 12:48:00,
2013-01-13 06:53:00,12.2,2.0,30.16,North,1,0.0,0.0,63,0.00,CLR,OVC,0.00,WeatherDisplay:10.37,2013-01-13 12:53:00,
2013-01-13 06:58:00,12.2,2.0,30.16,North,1,0.0,0.0,63,0.00,CLR,OVC,0.00,WeatherDisplay:10.37,2013-01-13 12:58:00,
2013-01-13 07:03:00,12.0,1.8,30.16,North,1,0.0,0.0,63,0.00,CLR,OVC,0.00,WeatherDisplay:10.37,2013-01-13 13:03:00,
2013-01-13 07:08:00,12.0,1.8,30.16,North,1,0.0,0.0,63,0.00,CLR,OVC,0.00,WeatherDisplay:10.37,2013-01-13 13:08:00,
2013-01-13 07:13:00,12.0,1.8,30.16,North,1,0.0,0.0,63,0.00,CLR,OVC,0.00,WeatherDisplay:10.37,2013-01-13 13:13:00,
2013-01-13 07:18:00,11.8,1.7,30.16,North,1,0.0,0.0,63,0.00,CLR,OVC,0.00,WeatherDisplay:10.37,2013-01-13 13:18:00,
2013-01-13 07:23:00,11.8,2.0,30.16,North,1,0.0,0.0,64,0.00,CLR,OVC,0.00,WeatherDisplay:10.37,2013-01-13 13:23:00,
2013-01-13 07:28:00,11.8,2.0,30.16,North,1,0.0,0.0,64,0.00,CLR,OVC,0.00,WeatherDisplay:10.37,2013-01-13 13:28:00,
2013-01-13 07:33:00,11.8,2.0,30.17,North,1,0.0,0.0,64,0.00,CLR,OVC,0.00,WeatherDisplay:10.37,2013-01-13 13:33:00,
2013-01-13 07:38:00,11.8,2.0,30.16,North,1,0.0,0.0,64,0.00,CLR,OVC,0.00,WeatherDisplay:10.37,2013-01-13 13:38:00,
2013-01-13 07:43:00,11.8,2.0,30.17,North,1,0.0,0.0,64,0.00,CLR,OVC,0.00,WeatherDisplay:10.37,2013-01-13 13:43:00,
2013-01-13 07:48:00,11.8,2.0,30.16,North,1,0.0,0.0,64,0.00,CLR,OVC,0.00,WeatherDisplay:10.37,2013-01-13 13:48:00,
2013-01-13 07:53:00,12.0,2.2,30.16,North,1,0.0,0.0,64,0.00,CLR,OVC,0.00,WeatherDisplay:10.37,2013-01-13 13:53:00,
2013-01-13 07:58:00,12.4,2.8,30.16,North,1,0.0,0.0,65,0.00,CLR,OVC,0.00,WeatherDisplay:10.37,2013-01-13 13:58:00,
2013-01-13 08:03:00,12.9,3.4,30.17,North,1,0.0,0.0,65,0.00,CLR,OVC,0.00,WeatherDisplay:10.37,2013-01-13 14:03:00,
2013-01-13 08:08:00,15.4,5.4,30.17,North,1,0.0,0.0,64,0.00,CLR,OVC,0.00,WeatherDisplay:10.37,2013-01-13 14:08:00,
2013-01-13 08:13:00,17.2,7.1,30.17,North,1,0.0,0.0,64,0.00,CLR,OVC,0.00,WeatherDisplay:10.37,2013-01-13 14:13:00,
2013-01-13 08:18:00,18.9,8.0,30.17,North,1,0.0,0.0,62,0.00,CLR,OVC,0.00,WeatherDisplay:10.37,2013-01-13 14:18:00,
2013-01-13 08:23:00,19.0,7.4,30.17,North,1,0.0,0.0,60,0.00,CLR,OVC,0.00,WeatherDisplay:10.37,2013-01-13 14:23:00,
2013-01-13 08:28:00,19.0,7.4,30.17,North,1,0.0,0.0,60,0.00,CLR,OVC,0.00,WeatherDisplay:10.37,2013-01-13 14:28:00,
2013-01-13 08:33:00,19.2,7.6,30.17,North,1,0.0,0.0,60,0.00,CLR,OVC,0.00,WeatherDisplay:10.37,2013-01-13 14:33:00,
2013-01-13 08:38:00,20.5,8.4,30.18,North,1,0.0,0.0,59,0.00,CLR,OVC,0.00,WeatherDisplay:10.37,2013-01-13 14:38:00,
2013-01-13 08:43:00,21.7,9.2,30.19,North,1,0.0,0.0,58,0.00,CLR,OVC,0.00,WeatherDisplay:10.37,2013-01-13 14:43:00,
2013-01-13 08:48:00,22.1,9.2,30.19,North,1,0.0,0.0,57,0.00,CLR,OVC,0.00,WeatherDisplay:10.37,2013-01-13 14:48:00,
2013-01-13 08:53:00,21.7,8.8,30.19,North,1,0.0,0.0,57,0.00,CLR,OVC,0.00,WeatherDisplay:10.37,2013-01-13 14:53:00,
2013-01-13 08:58:00,20.8,7.6,30.19,North,1,0.0,0.0,56,0.00,CLR,OVC,0.00,WeatherDisplay:10.37,2013-01-13 14:58:00,
2013-01-13 09:03:00,20.7,7.4,30.19,North,1,0.0,0.0,56,0.00,CLR,OVC,0.00,WeatherDisplay:10.37,2013-01-13 15:03:00,
2013-01-13 09:08:00,21.0,7.8,30.19,North,1,0.0,0.0,56,0.00,CLR,OVC,0.00,WeatherDisplay:10.37,2013-01-13 15:08:00,
2013-01-13 09:13:00,20.7,7.0,30.19,North,1,0.0,0.0,55,0.00,CLR,OVC,0.00,WeatherDisplay:10.37,2013-01-13 15:13:00,
2013-01-13 09:18:00,20.1,6.5,30.19,North,1,0.0,0.0,55,0.00,CLR,OVC,0.00,WeatherDisplay:10.37,2013-01-13 15:18:00,
2013-01-13 09:23:00,18.7,5.6,30.20,North,1,0.0,0.0,56,0.00,CLR,OVC,0.00,WeatherDisplay:10.37,2013-01-13 15:23:00,
2013-01-13 09:28:00,18.3,5.2,30.19,North,1,0.0,0.0,56,0.00,CLR,OVC,0.00,WeatherDisplay:10.37,2013-01-13 15:28:00,
2013-01-13 09:33:00,17.8,4.7,30.20,North,1,0.0,0.0,56,0.00,CLR,OVC,0.00,WeatherDisplay:10.37,2013-01-13 15:33:00,
2013-01-13 09:38:00,17.2,4.6,30.20,North,1,0.0,0.0,57,0.00,CLR,OVC,0.00,WeatherDisplay:10.37,2013-01-13 15:38:00,
2013-01-13 09:43:00,17.1,4.8,30.21,North,1,0.0,0.0,58,0.00,CLR,OVC,0.00,WeatherDisplay:10.37,2013-01-13 15:43:00,
2013-01-13 09:48:00,16.9,4.6,30.21,North,1,0.0,0.0,58,0.00,CLR,OVC,0.00,WeatherDisplay:10.37,2013-01-13 15:48:00,
2013-01-13 09:53:00,17.2,5.0,30.21,North,1,0.0,0.0,58,0.00,CLR,OVC,0.00,WeatherDisplay:10.37,2013-01-13 15:53:00,
2013-01-13 09:58:00,18.3,6.4,30.21,North,1,0.0,0.0,59,0.00,CLR,OVC,0.00,WeatherDisplay:10.37,2013-01-13 15:58:00,
2013-01-13 10:03:00,19.6,7.6,30.21,North,1,0.0,0.0,59,0.00,CLR,OVC,0.00,WeatherDisplay:10.37,2013-01-13 16:03:00,
2013-01-13 10:08:00,21.4,8.9,30.22,North,1,0.0,0.0,58,0.00,CLR,OVC,0.00,WeatherDisplay:10.37,2013-01-13 16:08:00,
2013-01-13 10:13:00,22.5,9.1,30.22,North,1,0.0,0.0,56,0.00,CLR,OVC,0.00,WeatherDisplay:10.37,2013-01-13 16:13:00,
2013-01-13 10:18:00,23.5,10.1,30.22,North,1,0.0,0.0,56,0.00,CLR,OVC,0.00,WeatherDisplay:10.37,2013-01-13 16:18:00,
2013-01-13 10:23:00,24.6,10.3,30.22,North,1,0.0,0.0,54,0.00,CLR,OVC,0.00,WeatherDisplay:10.37,2013-01-13 16:23:00,
2013-01-13 10:28:00,25.3,10.6,30.22,North,1,0.0,0.0,53,0.00,CLR,OVC,0.00,WeatherDisplay:10.37,2013-01-13 16:28:00,
2013-01-13 10:33:00,26.2,11.4,30.22,North,1,0.0,0.0,53,0.00,CLR,OVC,0.00,WeatherDisplay:10.37,2013-01-13 16:33:00,
2013-01-13 10:38:00,26.4,11.2,30.22,North,1,0.0,0.0,52,0.00,CLR,OVC,0.00,WeatherDisplay:10.37,2013-01-13 16:38:00,
2013-01-13 10:43:00,27.7,11.9,30.22,North,1,0.0,0.0,51,0.00,CLR,OVC,0.00,WeatherDisplay:10.37,2013-01-13 16:43:00,
2013-01-13 10:48:00,28.6,12.7,30.22,North,1,0.0,0.0,51,0.00,CLR,OVC,0.00,WeatherDisplay:10.37,2013-01-13 16:48:00,
2013-01-13 10:53:00,29.5,13.1,30.22,North,1,0.0,0.0,50,0.00,CLR,OVC,0.00,WeatherDisplay:10.37,2013-01-13 16:53:00,
2013-01-13 10:58:00,30.7,13.8,30.22,North,1,0.0,0.0,49,0.00,CLR,OVC,0.00,WeatherDisplay:10.37,2013-01-13 16:58:00,
2013-01-13 11:03:00,31.3,13.8,30.22,North,1,0.0,0.0,48,0.00,CLR,OVC,0.00,WeatherDisplay:10.37,2013-01-13 17:03:00,
2013-01-13 11:08:00,31.3,13.4,30.22,North,1,0.0,0.0,47,0.00,CLR,OVC,0.00,WeatherDisplay:10.37,2013-01-13 17:08:00,
2013-01-13 11:13:00,30.9,13.0,30.22,North,1,0.0,0.0,47,0.00,CLR,OVC,0.00,WeatherDisplay:10.37,2013-01-13 17:13:00,
2013-01-13 11:18:00,31.3,13.4,30.21,North,1,0.0,0.0,47,0.00,CLR,OVC,0.00,WeatherDisplay:10.37,2013-01-13 17:18:00,
2013-01-13 11:23:00,31.6,13.2,30.21,North,1,0.0,0.0,46,0.00,CLR,OVC,0.00,WeatherDisplay:10.37,2013-01-13 17:23:00,
2013-01-13 11:28:00,32.2,13.7,30.21,North,1,0.0,0.0,46,0.00,CLR,OVC,0.00,WeatherDisplay:10.37,2013-01-13 17:28:00,
2013-01-13 11:33:00,32.2,13.2,30.20,North,1,0.0,0.0,45,0.00,CLR,OVC,0.00,WeatherDisplay:10.37,2013-01-13 17:33:00,
2013-01-13 11:38:00,32.2,13.2,30.20,North,1,0.0,0.0,45,0.00,CLR,OVC,0.00,WeatherDisplay:10.37,2013-01-13 17:38:00,
2013-01-13 11:43:00,32.2,13.2,30.20,North,1,0.0,0.0,45,0.00,CLR,OVC,0.00,WeatherDisplay:10.37,2013-01-13 17:43:00,
2013-01-13 11:48:00,31.8,12.9,30.20,North,1,0.0,0.0,45,0.00,CLR,OVC,0.00,WeatherDisplay:10.37,2013-01-13 17:48:00,
2013-01-13 11:53:00,31.6,12.7,30.19,North,1,0.0,0.0,45,0.00,CLR,OVC,0.00,WeatherDisplay:10.37,2013-01-13 17:53:00,
2013-01-13 11:58:00,31.5,12.5,30.19,North,1,0.0,0.0,45,0.00,CLR,OVC,0.00,WeatherDisplay:10.37,2013-01-13 17:58:00,
2013-01-13 12:03:00,31.8,12.9,30.19,North,1,0.0,0.0,45,0.00,CLR,OVC,0.00,WeatherDisplay:10.37,2013-01-13 18:03:00,
2013-01-13 12:08:00,31.6,12.7,30.19,North,1,0.0,0.0,45,0.00,CLR,OVC,0.00,WeatherDisplay:10.37,2013-01-13 18:08:00,
2013-01-13 12:13:00,31.3,11.9,30.19,North,1,0.0,0.0,44,0.00,CLR,OVC,0.00,WeatherDisplay:10.37,2013-01-13 18:13:00,
2013-01-13 12:18:00,30.7,11.9,30.19,North,1,0.0,0.0,45,0.00,CLR,OVC,0.00,WeatherDisplay:10.37,2013-01-13 18:18:00,
2013-01-13 12:23:00,30.4,11.5,30.19,North,1,0.0,0.0,45,0.00,CLR,OVC,0.00,WeatherDisplay:10.37,2013-01-13 18:23:00,
2013-01-13 12:28:00,30.2,11.4,30.19,North,1,0.0,0.0,45,0.00,CLR,OVC,0.00,WeatherDisplay:10.37,2013-01-13 18:28:00,
2013-01-13 12:33:00,30.0,11.2,30.19,North,1,0.0,0.0,45,0.00,CLR,OVC,0.00,WeatherDisplay:10.37,2013-01-13 18:33:00,
2013-01-13 12:38:00,30.0,11.2,30.19,North,1,0.0,0.0,45,0.00,CLR,OVC,0.00,WeatherDisplay:10.37,2013-01-13 18:38:00,
2013-01-13 12:43:00,29.8,11.1,30.20,North,1,0.0,0.0,45,0.00,CLR,OVC,0.00,WeatherDisplay:10.37,2013-01-13 18:43:00,
2013-01-13 12:48:00,29.8,11.1,30.20,North,1,0.0,0.0,45,0.00,CLR,OVC,0.00,WeatherDisplay:10.37,2013-01-13 18:48:00,
2013-01-13 12:53:00,29.7,11.4,30.19,North,1,0.0,0.0,46,0.00,CLR,OVC,0.00,WeatherDisplay:10.37,2013-01-13 18:53:00,
2013-01-13 12:58:00,29.3,11.1,30.19,North,1,0.0,0.0,46,0.00,CLR,OVC,0.00,WeatherDisplay:10.37,2013-01-13 18:58:00,
2013-01-13 13:03:00,29.1,10.9,30.19,North,1,0.0,0.0,46,0.00,CLR,OVC,0.00,WeatherDisplay:10.37,2013-01-13 19:03:00,
2013-01-13 13:08:00,28.9,10.7,30.19,North,1,0.0,0.0,46,0.00,CLR,OVC,0.00,WeatherDisplay:10.37,2013-01-13 19:08:00,
2013-01-13 13:13:00,28.9,11.2,30.19,North,1,0.0,0.0,47,0.00,CLR,OVC,0.00,WeatherDisplay:10.37,2013-01-13 19:13:00,
2013-01-13 13:18:00,29.1,11.4,30.19,North,1,0.0,0.0,47,0.00,CLR,OVC,0.00,WeatherDisplay:10.37,2013-01-13 19:18:00,
2013-01-13 13:23:00,29.1,11.4,30.19,North,1,0.0,0.0,47,0.00,CLR,OVC,0.00,WeatherDisplay:10.37,2013-01-13 19:23:00,
2013-01-13 13:28:00,29.8,12.0,30.18,North,1,0.0,0.0,47,0.00,CLR,OVC,0.00,WeatherDisplay:10.37,2013-01-13 19:28:00,
2013-01-13 13:33:00,29.8,12.0,30.18,North,1,0.0,0.0,47,0.00,CLR,OVC,0.00,WeatherDisplay:10.37,2013-01-13 19:33:00,
2013-01-13 13:38:00,30.2,12.4,30.19,North,1,0.0,0.0,47,0.00,CLR,OVC,0.00,WeatherDisplay:10.37,2013-01-13 19:38:00,
2013-01-13 13:43:00,30.0,12.2,30.19,North,1,0.0,0.0,47,0.00,CLR,OVC,0.00,WeatherDisplay:10.37,2013-01-13 19:43:00,
2013-01-13 13:48:00,30.0,12.2,30.19,North,1,0.0,0.0,47,0.00,CLR,OVC,0.00,WeatherDisplay:10.37,2013-01-13 19:48:00,
2013-01-13 13:53:00,29.8,12.0,30.19,North,1,0.0,0.0,47,0.00,CLR,OVC,0.00,WeatherDisplay:10.37,2013-01-13 19:53:00,
2013-01-13 13:58:00,29.8,12.0,30.19,North,1,0.0,0.0,47,0.00,CLR,OVC,0.00,WeatherDisplay:10.37,2013-01-13 19:58:00,
2013-01-13 14:03:00,29.8,12.0,30.19,North,1,0.0,0.0,47,0.00,CLR,OVC,0.00,WeatherDisplay:10.37,2013-01-13 20:03:00,
2013-01-13 14:08:00,29.8,12.0,30.19,North,1,0.0,0.0,47,0.00,CLR,OVC,0.00,WeatherDisplay:10.37,2013-01-13 20:08:00,
2013-01-13 14:13:00,29.7,11.9,30.19,North,1,0.0,0.0,47,0.00,CLR,OVC,0.00,WeatherDisplay:10.37,2013-01-13 20:13:00,
2013-01-13 14:18:00,29.5,11.2,30.19,North,1,0.0,0.0,46,0.00,CLR,OVC,0.00,WeatherDisplay:10.37,2013-01-13 20:18:00,
2013-01-13 14:23:00,29.5,11.7,30.19,North,1,0.0,0.0,47,0.00,CLR,OVC,0.00,WeatherDisplay:10.37,2013-01-13 20:23:00,
2013-01-13 14:28:00,29.5,11.7,30.19,North,1,0.0,0.0,47,0.00,CLR,OVC,0.00,WeatherDisplay:10.37,2013-01-13 20:28:00,
2013-01-13 14:33:00,29.3,11.1,30.19,North,1,0.0,0.0,46,0.00,CLR,OVC,0.00,WeatherDisplay:10.37,2013-01-13 20:33:00,
2013-01-13 14:38:00,29.1,10.9,30.19,North,1,0.0,0.0,46,0.00,CLR,OVC,0.00,WeatherDisplay:10.37,2013-01-13 20:38:00,
2013-01-13 14:43:00,29.1,10.9,30.19,North,1,0.0,0.0,46,0.00,CLR,OVC,0.00,WeatherDisplay:10.37,2013-01-13 20:43:00,
2013-01-13 14:48:00,29.1,10.9,30.19,North,1,0.0,0.0,46,0.00,CLR,OVC,0.00,WeatherDisplay:10.37,2013-01-13 20:48:00,
2013-01-13 14:53:00,29.1,10.9,30.19,North,1,0.0,0.0,46,0.00,CLR,OVC,0.00,WeatherDisplay:10.37,2013-01-13 20:53:00,
2013-01-13 14:58:00,29.1,10.9,30.19,North,1,0.0,0.0,46,0.00,CLR,OVC,0.00,WeatherDisplay:10.37,2013-01-13 20:58:00,
2013-01-13 15:03:00,29.1,10.9,30.19,North,1,0.0,0.0,46,0.00,CLR,OVC,0.00,WeatherDisplay:10.37,2013-01-13 21:03:00,
2013-01-13 15:08:00,29.3,11.1,30.19,North,1,0.0,0.0,46,0.00,CLR,OVC,0.00,WeatherDisplay:10.37,2013-01-13 21:08:00,
2013-01-13 15:13:00,29.1,10.9,30.19,North,1,0.0,0.0,46,0.00,CLR,OVC,0.00,WeatherDisplay:10.37,2013-01-13 21:13:00,
2013-01-13 15:18:00,29.1,10.9,30.20,North,1,0.0,0.0,46,0.00,CLR,OVC,0.00,WeatherDisplay:10.37,2013-01-13 21:18:00,
2013-01-13 15:23:00,29.1,10.9,30.20,North,1,0.0,0.0,46,0.00,CLR,OVC,0.00,WeatherDisplay:10.37,2013-01-13 21:23:00,
2013-01-13 15:28:00,28.9,10.7,30.20,North,1,0.0,0.0,46,0.00,CLR,OVC,0.00,WeatherDisplay:10.37,2013-01-13 21:28:00,
2013-01-13 15:33:00,28.8,10.6,30.20,North,1,0.0,0.0,46,0.00,CLR,OVC,0.00,WeatherDisplay:10.37,2013-01-13 21:33:00,
2013-01-13 15:38:00,28.9,10.7,30.20,North,1,0.0,0.0,46,0.00,CLR,OVC,0.00,WeatherDisplay:10.37,2013-01-13 21:38:00,
2013-01-13 15:43:00,29.1,10.9,30.21,North,1,0.0,0.0,46,0.00,CLR,OVC,0.00,WeatherDisplay:10.37,2013-01-13 21:43:00,
2013-01-13 15:48:00,28.9,10.2,30.21,North,1,0.0,0.0,45,0.00,CLR,OVC,0.00,WeatherDisplay:10.37,2013-01-13 21:48:00,
2013-01-13 15:53:00,28.6,9.9,30.21,North,1,0.0,0.0,45,0.00,CLR,OVC,0.00,WeatherDisplay:10.37,2013-01-13 21:53:00,
2013-01-13 15:58:00,28.4,9.7,30.21,North,1,0.0,0.0,45,0.00,CLR,OVC,0.00,WeatherDisplay:10.37,2013-01-13 21:58:00,
2013-01-13 16:03:00,28.4,10.2,30.21,North,1,0.0,0.0,46,0.00,CLR,OVC,0.00,WeatherDisplay:10.37,2013-01-13 22:03:00,
2013-01-13 16:08:00,28.2,10.1,30.22,North,1,0.0,0.0,46,0.00,CLR,OVC,0.00,WeatherDisplay:10.37,2013-01-13 22:08:00,
2013-01-13 16:13:00,28.2,9.6,30.22,North,1,0.0,0.0,45,0.00,CLR,OVC,0.00,WeatherDisplay:10.37,2013-01-13 22:13:00,
2013-01-13 16:18:00,28.2,9.6,30.22,North,1,0.0,0.0,45,0.00,CLR,OVC,0.00,WeatherDisplay:10.37,2013-01-13 22:18:00,
2013-01-13 16:23:00,28.0,9.4,30.22,North,1,0.0,0.0,45,0.00,CLR,OVC,0.00,WeatherDisplay:10.37,2013-01-13 22:23:00,
2013-01-13 16:28:00,28.0,9.9,30.22,North,1,0.0,0.0,46,0.00,CLR,OVC,0.00,WeatherDisplay:10.37,2013-01-13 22:28:00,
2013-01-13 16:33:00,28.0,9.9,30.22,North,1,0.0,0.0,46,0.00,CLR,OVC,0.00,WeatherDisplay:10.37,2013-01-13 22:33:00,
2013-01-13 16:38:00,28.0,9.9,30.22,North,1,0.0,0.0,46,0.00,CLR,OVC,0.00,WeatherDisplay:10.37,2013-01-13 22:38:00,
2013-01-13 16:43:00,28.0,9.9,30.22,North,1,0.0,0.0,46,0.00,CLR,OVC,0.00,WeatherDisplay:10.37,2013-01-13 22:43:00,
2013-01-13 16:48:00,27.9,9.7,30.22,North,1,0.0,0.0,46,0.00,CLR,OVC,0.00,WeatherDisplay:10.37,2013-01-13 22:48:00,
2013-01-13 16:53:00,27.3,9.2,30.22,North,1,0.0,0.0,46,0.00,CLR,OVC,0.00,WeatherDisplay:10.37,2013-01-13 22:53:00,
2013-01-13 16:58:00,26.8,8.7,30.23,North,1,0.0,0.0,46,0.00,CLR,OVC,0.00,WeatherDisplay:10.37,2013-01-13 22:58:00,
2013-01-13 17:03:00,26.2,8.2,30.23,North,1,0.0,0.0,46,0.00,CLR,OVC,0.00,WeatherDisplay:10.37,2013-01-13 23:03:00,
2013-01-13 17:08:00,25.7,7.7,30.23,North,1,0.0,0.0,46,0.00,CLR,OVC,0.00,WeatherDisplay:10.37,2013-01-13 23:08:00,
2013-01-13 17:13:00,25.3,7.4,30.23,North,1,0.0,0.0,46,0.00,CLR,OVC,0.00,WeatherDisplay:10.37,2013-01-13 23:13:00,
2013-01-13 17:18:00,25.0,7.6,30.23,North,1,0.0,0.0,47,0.00,CLR,OVC,0.00,WeatherDisplay:10.37,2013-01-13 23:18:00,
2013-01-13 17:23:00,24.6,7.2,30.23,North,1,0.0,0.0,47,0.00,CLR,OVC,0.00,WeatherDisplay:10.37,2013-01-13 23:23:00,
2013-01-13 17:28:00,24.4,7.1,30.24,North,1,0.0,0.0,47,0.00,CLR,OVC,0.00,WeatherDisplay:10.37,2013-01-13 23:28:00,
2013-01-13 17:33:00,24.3,6.9,30.24,North,1,0.0,0.0,47,0.00,CLR,OVC,0.00,WeatherDisplay:10.37,2013-01-13 23:33:00,
2013-01-13 17:38:00,24.1,7.2,30.22,North,1,0.0,0.0,48,0.00,CLR,OVC,0.00,WeatherDisplay:10.37,2013-01-13 23:38:00,
2013-01-13 17:43:00,23.7,6.9,30.23,North,1,0.0,0.0,48,0.00,CLR,OVC,0.00,WeatherDisplay:10.37,2013-01-13 23:43:00,
2013-01-13 17:48:00,23.7,6.9,30.23,North,1,0.0,0.0,48,0.00,CLR,OVC,0.00,WeatherDisplay:10.37,2013-01-13 23:48:00,
2013-01-13 17:53:00,23.5,6.7,30.23,North,1,0.0,0.0,48,0.00,CLR,OVC,0.00,WeatherDisplay:10.37,2013-01-13 23:53:00,
2013-01-13 17:58:00,23.2,6.4,30.23,North,1,0.0,0.0,48,0.00,CLR,OVC,0.00,WeatherDisplay:10.37,2013-01-13 23:58:00,
2013-01-13 18:03:00,23.0,6.7,30.23,North,1,0.0,0.0,49,0.00,CLR,OVC,0.00,WeatherDisplay:10.37,2013-01-14 00:03:00,
2013-01-13 18:08:00,22.8,6.5,30.23,North,1,0.0,0.0,49,0.00,CLR,OVC,0.00,WeatherDisplay:10.37,2013-01-14 00:08:00,
2013-01-13 18:13:00,22.8,6.5,30.23,North,1,0.0,0.0,49,0.00,CLR,OVC,0.00,WeatherDisplay:10.37,2013-01-14 00:13:00,
2013-01-13 18:18:00,22.6,6.3,30.24,North,1,0.0,0.0,49,0.00,CLR,OVC,0.00,WeatherDisplay:10.37,2013-01-14 00:18:00,
2013-01-13 18:23:00,22.6,6.3,30.24,North,1,0.0,0.0,49,0.00,CLR,OVC,0.00,WeatherDisplay:10.37,2013-01-14 00:23:00,
2013-01-13 18:28:00,22.6,6.3,30.24,North,1,0.0,0.0,49,0.00,CLR,OVC,0.00,WeatherDisplay:10.37,2013-01-14 00:28:00,
2013-01-13 18:33:00,22.6,6.3,30.24,North,1,0.0,0.0,49,0.00,CLR,OVC,0.00,WeatherDisplay:10.37,2013-01-14 00:33:00,
2013-01-13 18:38:00,22.5,6.2,30.24,North,1,0.0,0.0,49,0.00,CLR,OVC,0.00,WeatherDisplay:10.37,2013-01-14 00:38:00,
2013-01-13 18:43:00,22.3,6.0,30.24,North,1,0.0,0.0,49,0.00,CLR,OVC,0.00,WeatherDisplay:10.37,2013-01-14 00:43:00,
2013-01-13 18:48:00,22.3,6.0,30.24,North,1,0.0,0.0,49,0.00,CLR,OVC,0.00,WeatherDisplay:10.37,2013-01-14 00:48:00,
2013-01-13 18:53:00,21.9,6.1,30.24,North,1,0.0,0.0,50,0.00,CLR,OVC,0.00,WeatherDisplay:10.37,2013-01-14 00:53:00,
2013-01-13 18:58:00,21.9,6.1,30.25,North,1,0.0,0.0,50,0.00,CLR,OVC,0.00,WeatherDisplay:10.37,2013-01-14 00:58:00,
2013-01-13 19:03:00,21.9,6.1,30.26,North,1,0.0,0.0,50,0.00,CLR,OVC,0.00,WeatherDisplay:10.37,2013-01-14 01:03:00,
2013-01-13 19:08:00,21.9,6.1,30.25,North,1,0.0,0.0,50,0.00,CLR,OVC,0.00,WeatherDisplay:10.37,2013-01-14 01:08:00,
2013-01-13 19:13:00,21.9,6.1,30.25,North,1,0.0,0.0,50,0.00,CLR,OVC,0.00,WeatherDisplay:10.37,2013-01-14 01:13:00,
2013-01-13 19:18:00,21.9,6.1,30.25,North,1,0.0,0.0,50,0.00,CLR,OVC,0.00,WeatherDisplay:10.37,2013-01-14 01:18:00,
2013-01-13 19:23:00,21.9,6.1,30.26,North,1,0.0,0.0,50,0.00,CLR,OVC,0.00,WeatherDisplay:10.37,2013-01-14 01:23:00,
2013-01-13 19:28:00,21.7,5.9,30.26,North,1,0.0,0.0,50,0.00,CLR,OVC,0.00,WeatherDisplay:10.37,2013-01-14 01:28:00,
2013-01-13 19:33:00,21.7,6.4,30.25,North,1,0.0,0.0,51,0.00,CLR,OVC,0.00,WeatherDisplay:10.37,2013-01-14 01:33:00,
2013-01-13 19:38:00,21.6,6.2,30.25,North,1,0.0,0.0,51,0.00,CLR,OVC,0.00,WeatherDisplay:10.37,2013-01-14 01:38:00,
2013-01-13 19:43:00,21.6,6.2,30.25,North,1,0.0,0.0,51,0.00,CLR,OVC,0.00,WeatherDisplay:10.37,2013-01-14 01:43:00,
2013-01-13 19:48:00,21.4,6.0,30.25,North,1,0.0,0.0,51,0.00,CLR,OVC,0.00,WeatherDisplay:10.37,2013-01-14 01:48:00,
2013-01-13 19:53:00,21.2,5.9,30.24,North,1,0.0,0.0,51,0.00,CLR,OVC,0.00,WeatherDisplay:10.37,2013-01-14 01:53:00,
2013-01-13 19:58:00,21.0,5.7,30.25,North,1,0.0,0.0,51,0.00,CLR,OVC,0.00,WeatherDisplay:10.37,2013-01-14 01:58:00,
2013-01-13 20:03:00,21.0,5.7,30.25,North,1,0.0,0.0,51,0.00,CLR,OVC,0.00,WeatherDisplay:10.37,2013-01-14 02:03:00,
2013-01-13 20:08:00,21.0,6.1,30.25,North,1,0.0,0.0,52,0.00,CLR,OVC,0.00,WeatherDisplay:10.37,2013-01-14 02:08:00,
2013-01-13 20:13:00,21.0,6.1,30.26,North,1,0.0,0.0,52,0.00,CLR,OVC,0.00,WeatherDisplay:10.37,2013-01-14 02:13:00,
2013-01-13 20:18:00,21.0,6.1,30.25,North,1,0.0,0.0,52,0.00,CLR,OVC,0.00,WeatherDisplay:10.37,2013-01-14 02:18:00,
2013-01-13 20:23:00,20.8,6.0,30.26,North,1,0.0,0.0,52,0.00,CLR,OVC,0.00,WeatherDisplay:10.37,2013-01-14 02:23:00,
2013-01-13 20:28:00,20.8,6.0,30.26,North,1,0.0,0.0,52,0.00,CLR,OVC,0.00,WeatherDisplay:10.37,2013-01-14 02:28:00,
2013-01-13 20:33:00,20.8,6.0,30.25,North,1,0.0,0.0,52,0.00,CLR,OVC,0.00,WeatherDisplay:10.37,2013-01-14 02:33:00,
2013-01-13 20:38:00,20.7,6.2,30.25,North,1,0.0,0.0,53,0.00,CLR,OVC,0.00,WeatherDisplay:10.37,2013-01-14 02:38:00,
2013-01-13 20:43:00,20.7,6.2,30.26,North,1,0.0,0.0,53,0.00,CLR,OVC,0.00,WeatherDisplay:10.37,2013-01-14 02:43:00,
2013-01-13 20:48:00,20.7,6.2,30.26,North,1,0.0,0.0,53,0.00,CLR,OVC,0.00,WeatherDisplay:10.37,2013-01-14 02:48:00,
2013-01-13 20:53:00,20.7,6.2,30.26,North,1,0.0,0.0,53,0.00,CLR,OVC,0.00,WeatherDisplay:10.37,2013-01-14 02:53:00,
2013-01-13 20:58:00,20.7,6.2,30.26,North,1,0.0,0.0,53,0.00,CLR,OVC,0.00,WeatherDisplay:10.37,2013-01-14 02:58:00,
2013-01-13 21:03:00,20.7,6.2,30.27,North,1,0.0,0.0,53,0.00,CLR,OVC,0.00,WeatherDisplay:10.37,2013-01-14 03:03:00,
2013-01-13 21:08:00,20.7,6.2,30.27,North,1,0.0,0.0,53,0.00,CLR,OVC,0.00,WeatherDisplay:10.37,2013-01-14 03:08:00,
2013-01-13 21:13:00,20.5,6.0,30.27,North,1,0.0,0.0,53,0.00,CLR,OVC,0.00,WeatherDisplay:10.37,2013-01-14 03:13:00,
2013-01-13 21:18:00,20.5,6.0,30.27,North,1,0.0,0.0,53,0.00,CLR,OVC,0.00,WeatherDisplay:10.37,2013-01-14 03:18:00,
2013-01-13 21:23:00,20.5,6.0,30.28,North,1,0.0,0.0,53,0.00,CLR,OVC,0.00,WeatherDisplay:10.37,2013-01-14 03:23:00,
2013-01-13 21:28:00,20.5,6.0,30.27,North,1,0.0,0.0,53,0.00,CLR,OVC,0.00,WeatherDisplay:10.37,2013-01-14 03:28:00,
2013-01-13 21:33:00,20.3,5.9,30.28,North,1,0.0,0.0,53,0.00,CLR,OVC,0.00,WeatherDisplay:10.37,2013-01-14 03:33:00,
2013-01-13 21:38:00,20.1,5.7,30.28,North,1,0.0,0.0,53,0.00,CLR,OVC,0.00,WeatherDisplay:10.37,2013-01-14 03:38:00,
2013-01-13 21:43:00,20.1,5.7,30.28,North,1,0.0,0.0,53,0.00,CLR,OVC,0.00,WeatherDisplay:10.37,2013-01-14 03:43:00,
2013-01-13 21:48:00,19.9,5.9,30.28,North,1,0.0,0.0,54,0.00,CLR,OVC,0.00,WeatherDisplay:10.37,2013-01-14 03:48:00,
2013-01-13 21:53:00,19.9,5.9,30.28,North,1,0.0,0.0,54,0.00,CLR,OVC,0.00,WeatherDisplay:10.37,2013-01-14 03:53:00,
2013-01-13 21:58:00,19.6,5.6,30.28,North,1,0.0,0.0,54,0.00,CLR,OVC,0.00,WeatherDisplay:10.37,2013-01-14 03:58:00,
2013-01-13 22:03:00,19.6,5.6,30.28,North,1,0.0,0.0,54,0.00,CLR,OVC,0.00,WeatherDisplay:10.37,2013-01-14 04:03:00,
2013-01-13 22:08:00,19.4,5.4,30.28,North,1,0.0,0.0,54,0.00,CLR,OVC,0.00,WeatherDisplay:10.37,2013-01-14 04:08:00,
2013-01-13 22:13:00,19.2,5.3,30.28,North,1,0.0,0.0,54,0.00,CLR,OVC,0.00,WeatherDisplay:10.37,2013-01-14 04:13:00,
2013-01-13 22:18:00,18.9,4.9,30.28,North,1,0.0,0.0,54,0.00,CLR,OVC,0.00,WeatherDisplay:10.37,2013-01-14 04:18:00,
2013-01-13 22:23:00,18.7,5.2,30.28,North,1,0.0,0.0,55,0.00,CLR,OVC,0.00,WeatherDisplay:10.37,2013-01-14 04:23:00,
2013-01-13 22:28:00,18.7,5.2,30.28,North,1,0.0,0.0,55,0.00,CLR,OVC,0.00,WeatherDisplay:10.37,2013-01-14 04:28:00,
2013-01-13 22:33:00,18.7,5.2,30.28,North,1,0.0,0.0,55,0.00,CLR,OVC,0.00,WeatherDisplay:10.37,2013-01-14 04:33:00,
2013-01-13 22:38:00,18.3,4.8,30.28,North,1,0.0,0.0,55,0.00,CLR,OVC,0.00,WeatherDisplay:10.37,2013-01-14 04:38:00,
2013-01-13 22:43:00,18.1,4.7,30.29,North,1,0.0,0.0,55,0.00,CLR,OVC,0.00,WeatherDisplay:10.37,2013-01-14 04:43:00,
2013-01-13 22:48:00,18.0,4.5,30.29,North,1,0.0,0.0,55,0.00,CLR,OVC,0.00,WeatherDisplay:10.37,2013-01-14 04:48:00,
2013-01-13 22:53:00,17.6,4.2,30.29,North,1,0.0,0.0,55,0.00,CLR,OVC,0.00,WeatherDisplay:10.37,2013-01-14 04:53:00,
2013-01-13 22:58:00,17.6,4.2,30.30,North,1,0.0,0.0,55,0.00,CLR,OVC,0.00,WeatherDisplay:10.37,2013-01-14 04:58:00,
2013-01-13 23:00:00,17.6,4.2,30.29,North,1,0.0,0.0,55,0.00,CLR,OVC,0.00,WeatherDisplay:10.37,2013-01-14 05:00:00,
2013-01-13 23:02:00,17.6,4.2,30.29,North,1,0.0,0.0,55,0.00,CLR,OVC,0.00,WeatherDisplay:10.37,2013-01-14 05:02:00,
2013-01-13 23:03:00,17.6,4.2,30.29,North,1,0.0,0.0,55,0.00,CLR,OVC,0.00,WeatherDisplay:10.37,2013-01-14 05:03:00,
2013-01-13 23:08:00,17.6,4.2,30.29,North,1,0.0,0.0,55,0.00,CLR,OVC,0.00,WeatherDisplay:10.37,2013-01-14 05:08:00,
2013-01-13 23:13:00,17.4,4.4,30.29,North,1,0.0,0.0,56,0.00,CLR,OVC,0.00,WeatherDisplay:10.37,2013-01-14 05:13:00,
2013-01-13 23:18:00,17.4,4.4,30.29,North,1,0.0,0.0,56,0.00,CLR,OVC,0.00,WeatherDisplay:10.37,2013-01-14 05:18:00,
2013-01-13 23:23:00,17.4,4.4,30.30,North,1,0.0,0.0,56,0.00,CLR,OVC,0.00,WeatherDisplay:10.37,2013-01-14 05:23:00,
2013-01-13 23:28:00,17.4,4.4,30.30,North,1,0.0,0.0,56,0.00,CLR,OVC,0.00,WeatherDisplay:10.37,2013-01-14 05:28:00,
2013-01-13 23:33:00,17.4,4.4,30.30,North,1,0.0,0.0,56,0.00,CLR,OVC,0.00,WeatherDisplay:10.37,2013-01-14 05:33:00,
2013-01-13 23:38:00,17.2,4.2,30.30,North,1,0.0,0.0,56,0.00,CLR,OVC,0.00,WeatherDisplay:10.37,2013-01-14 05:38:00,
2013-01-13 23:43:00,17.2,4.2,30.30,North,1,0.0,0.0,56,0.00,CLR,OVC,0.00,WeatherDisplay:10.37,2013-01-14 05:43:00,
2013-01-13 23:48:00,17.2,4.2,30.30,North,1,0.0,0.0,56,0.00,CLR,OVC,0.00,WeatherDisplay:10.37,2013-01-14 05:48:00,
2013-01-13 23:53:00,17.1,4.4,30.30,North,1,0.0,0.0,57,0.00,CLR,OVC,0.00,WeatherDisplay:10.37,2013-01-14 05:53:00,
2013-01-13 23:58:00,17.1,4.4,30.30,North,1,0.0,0.0,57,0.00,CLR,OVC,0.00,WeatherDisplay:10.37,2013-01-14 05:58:00,